Temperature
18 18 18 18 18 18 18 18 18 18 18 18 18 18 18 18 18 18 17 17 17 17 17 17 17 17 17 16 16 16 16 16 16 16 16 16 16 16 16 16 16 16 16
18 18 18 18 18 18 18 18 18 18 18 18 18 18 18 18 18 17 17 17 17 17 17 17 17 17 16 16 16 16 16 16 16 16 16 16 16 16 16 16 16 16 16
18 18 18 18 18 18 18 18 18 18 18 18 18 18 18 18 18 17 17 17 17 17 17 17 17 16 16 16 16 16 16 16 16 16 16 16 16 16 16 16 16 16 16
18 18 18 18 18 18 18 18 18 18 18 18 18 18 18 18 18 17 17 17 17 17 17 17 17 17 16 16 16 16 16 16 16 16 16 16 16 16 16 15 15 15 16
18 18 18 18 18 18 18 18 18 18 18 18 18 18 18 18 18 18 17 17 17 17 17 17 17 17 16 16 16 16 16 16 16 16 16 16 16 16 16 15 15 15 15
18 18 18 18 18 18 18 18 18 18 18 18 18 18 18 18 18 18 18 17 17 17 17 17 17 17 17 16 16 16 16 16 16 16 16 16 16 16 16 15 15 15 15
18 19 18 18 18 18 18 18 18 18 18 18 18 18 18 18 18 18 18 18 18 17 17 17 17 17 17 17 16 16 16 16 16 16 16 16 16 16 15 15 15 15 15
18 18 19 18 18 18 18 18 18 18 18 18 18 18 18 18 18 18 18 18 18 17 17 17 17 17 17 17 16 16 16 16 16 16 16 16 16 15 15 15 15 15 15
18 18 18 18 18 18 18 18 18 18 18 18 18 18 18 18 18 18 18 18 18 18 17 17 17 17 17 17 16 16 16 16 16 16 16 16 16 15 15 15 15 15 15
18 18 18 18 18 18 18 18 18 18 18 18 18 18 18 18 18 18 18 18 18 18 18 17 17 17 17 17 17 16 16 16 16 16 16 16 16 15 15 15 15 15 15
18 18 18 18 18 18 18 18 18 18 18 18 18 18 18 18 18 17 17 18 18 18 18 17 17 17 17 17 17 17 16 16 16 16 16 16 16 16 15 15 15 15 15
18 18 18 18 18 18 18 18 18 18 18 18 18 18 18 18 18 18 17 18 18 18 18 17 17 17 17 17 17 17 16 16 16 16 16 16 16 15 15 15 15 15 15
19 18 18 18 18 18 18 18 18 18 18 18 18 18 18 18 18 18 17 17 17 17 17 17 17 17 17 17 17 17 16 16 16 16 16 16 16 16 15 15 15 15 15
19 18 18 18 18 18 18 18 18 18 18 18 18 18 18 18 18 17 17 17 17 17 17 17 17 17 17 17 17 16 16 16 16 16 16 16 16 16 15 15 15 15 15
19 18 18 18 18 18 18 18 18 18 18 18 18 18 18 18 17 17 17 17 17 16 17 17 17 17 17 17 16 16 16 16 16 16 16 16 16 15 15 15 15 15 15
18 18 18 18 18 18 18 18 18 18 18 18 18 18 18 17 17 17 17 17 17 17 16 17 17 17 17 17 16 16 16 16 16 16 16 15 15 15 15 15 15 15 15
19 18 18 18 18 18 18 18 18 18 18 18 17 17 17 17 17 17 17 17 17 17 17 17 17 16 16 16 16 16 16 16 16 16 16 16 15 15 15 15 15 15 15
18 18 18 18 18 18 18 18 18 17 17 17 17 17 17 17 17 17 17 17 17 16 16 16 16 16 16 16 16 16 16 16 16 16 15 15 15 15 15 15 15 15 14
18 18 18 18 18 18 18 18 17 17 17 17 17 17 17 17 17 17 17 17 16 16 16 16 16 16 16 16 16 16 16 16 15 15 15 15 15 15 15 15 15 14 14
18 18 18 18 18 18 17 17 17 17 17 17 17 17 17 17 17 17 17 17 17 16 16 16 16 16 16 16 15 16 16 16 15 15 15 15 15 15 15 15 14 14 14
18 18 18 18 18 17 17 17 17 17 17 17 17 17 17 17 17 17 17 17 16 16 16 16 16 15 15 15 15 15 15 15 15 15 15 15 15 14 14 14 14 14 14
18 18 18 18 18 17 17 17 17 17 17 17 17 17 16 16 16 16 16 16 16 16 16 16 15 15 15 15 15 15 15 14 14 15 14 14 14 14 14 14 14 14 14
18 18 18 18 17 17 17 17 17 17 17 16 16 16 16 16 16 16 16 16 16 16 15 15 15 15 15 15 15 14 14 14 14 14 14 14 14 14 14 14 14 13 13
18 18 17 17 17 17 17 17 17 16 16 16 16 16 16 16 16 16 16 16 16 16 15 15 15 15 15 15 14 14 14 14 14 14 13 13 14 13 13 13 13 13 13
17 17 17 17 17 17 17 16 16 16 16 16 16 16 16 16 16 15 15 15 15 15 15 15 15 14 14 14 14 14 14 13 13 13 13 13 13 13 13 13 13 13 13
17 17 17 17 17 17 16 16 16 16 16 16 15 15 15 15 15 15 15 15 15 15 15 15 14 14 14 14 14 13 13 13 13 13 13 13 13 12 12 13 13 12 12
Wind_Speed
1 1 1 1 2 2 2 2 2 2 2 2 2 2 1 1 1 1 1 1 0 1 1 2 2 2 3 3 3 3 3 3 3 3 3 3 3 4 5 5 6 7 7
2 1 0 1 1 1 1 1 1 1 1 1 2 2 1 1 1 1 1 1 1 0 1 1 1 2 3 3 3 2 2 2 2 3 3 3 3 4 4 4 5 6 7
2 2 1 0 0 1 1 2 2 2 2 2 2 2 1 1 1 0 0 0 1 1 1 1 2 2 3 3 2 2 2 3 3 3 3 3 3 4 4 4 4 4 5
4 2 1 1 1 2 2 1 1 2 2 2 1 1 1 1 0 1 1 1 1 1 2 2 3 4 4 3 3 3 3 3 3 3 4 4 4 3 4 4 4 4 5
4 3 2 1 2 2 1 1 1 1 1 1 1 1 1 0 1 1 1 1 2 2 2 3 3 3 4 4 3 3 3 3 3 3 4 4 4 4 4 4 4 4 5
4 3 2 2 2 2 1 1 1 1 1 1 1 1 1 1 0 1 1 1 2 2 3 3 3 3 3 4 4 3 3 3 3 3 3 3 4 4 4 5 5 5 5
3 3 2 2 2 2 1 2 2 2 1 1 2 2 2 1 0 1 1 1 1 2 2 3 3 2 3 4 4 3 3 3 3 3 2 4 4 5 5 6 6 6 6
3 3 3 2 2 2 2 2 2 1 1 1 2 1 2 3 2 1 0 1 1 2 2 3 3 3 3 2 3 3 3 3 3 3 3 4 5 6 6 6 6 6 6
2 3 3 2 2 2 2 2 2 2 1 0 1 2 2 1 2 2 1 1 1 1 2 2 2 3 3 2 3 3 4 4 4 4 4 4 5 6 7 7 7 7 7
1 2 3 3 2 2 2 2 2 2 3 1 0 0 1 2 1 1 2 2 2 1 2 2 2 3 3 3 3 4 4 4 4 4 4 4 4 4 5 6 7 7 7
0 1 2 2 2 2 2 2 2 2 2 2 1 1 1 1 1 1 2 3 2 2 2 2 2 2 2 3 3 4 4 4 4 5 5 4 4 4 4 4 5 7 7
0 0 1 2 2 2 3 3 2 2 2 2 2 2 2 2 2 2 2 2 2 2 2 2 2 2 2 2 3 3 3 3 4 5 5 4 4 4 4 5 5 5 5
1 1 1 1 1 2 2 2 2 2 2 3 3 2 2 3 2 2 2 1 1 2 2 1 2 2 2 2 3 3 2 3 3 4 5 5 5 5 5 5 6 5 5
3 2 2 2 2 2 2 2 2 2 2 3 3 3 2 2 2 3 3 2 1 1 2 3 1 2 2 2 3 3 3 3 4 4 4 5 6 6 5 5 5 5 5
3 3 2 2 2 2 2 2 2 2 2 2 3 3 2 2 2 2 3 3 3 2 3 2 2 1 2 2 3 2 3 4 4 4 5 5 6 5 5 5 5 5 5
2 2 2 2 2 2 2 2 2 2 2 2 2 3 2 2 2 2 3 2 3 3 3 2 2 2 2 2 2 3 3 4 5 6 6 6 6 6 6 6 6 6 6
3 3 3 2 2 2 2 3 3 3 3 3 3 3 3 3 2 2 2 2 3 3 4 3 2 2 2 2 2 2 3 3 4 6 7 7 6 7 7 7 7 7 7
4 4 3 3 3 3 3 4 4 4 4 4 3 3 4 3 3 3 3 3 3 3 4 4 3 2 3 2 2 2 2 3 4 5 6 7 7 7 8 8 8 8 8
4 4 4 4 4 4 4 4 4 4 4 4 4 4 5 4 4 4 4 4 3 3 3 3 3 2 2 2 2 2 3 2 4 4 5 6 7 8 9 9 9 9 9
4 4 4 4 4 4 4 4 4 4 4 4 4 5 5 5 6 5 4 5 4 3 3 3 3 3 3 2 2 2 3 2 3 3 4 5 6 7 9 9 9 10 10
4 4 3 3 3 3 4 4 4 4 4 3 3 4 5 5 6 6 5 5 4 4 3 3 3 3 3 2 3 2 3 3 3 3 3 3 3 4 5 7 9 10 10
3 3 3 3 4 4 4 5 4 3 3 3 4 4 4 4 5 6 6 6 6 5 5 4 4 4 5 4 3 3 3 3 3 2 2 4 3 4 4 5 7 9 10
4 3 3 3 4 4 4 5 6 4 3 4 4 4 4 4 3 3 4 5 6 7 8 6 6 7 5 5 4 4 4 4 5 2 2 3 3 4 5 6 7 8 9
4 4 4 4 4 4 4 5 5 4 3 4 5 5 4 4 4 3 3 4 5 5 6 6 7 7 6 5 5 5 5 4 4 3 3 4 3 4 4 5 7 8 9
4 4 3 4 4 5 5 5 4 3 3 5 5 5 5 5 5 4 3 4 5 5 5 6 7 7 6 6 4 2 2 2 4 3 3 3 3 4 4 5 6 8 8
4 3 4 4 5 5 6 6 5 3 4 4 4 4 5 6 6 5 4 4 6 6 4 3 4 5 5 5 5 5 4 4 3 4 3 3 3 2 3 3 4 4 5
Wind_Direction
141 76 40 32 28 50 65 68 67 54 49 57 74 97 100 99 92 58 20 29 103 153 167 177 178 176 173 170 173 168 162 163 160 165 170 172 184 193 201 207 207 209 208
164 140 66 27 17 44 54 96 86 62 44 63 53 65 75 93 60 32 9 356 346 167 151 162 182 170 170 166 163 165 164 171 182 192 196 196 199 204 205 204 210 217 215
180 164 145 333 340 90 84 86 66 64 64 65 52 43 50 44 80 17 347 316 320 320 263 225 216 206 196 189 187 189 189 200 206 206 207 210 212 209 200 200 205 212 214
191 172 166 208 163 123 107 89 72 65 52 53 43 15 40 62 172 218 193 232 261 286 289 259 234 222 216 209 209 211 214 218 217 208 207 212 216 204 199 205 208 207 206
192 178 180 190 148 115 101 115 99 115 98 55 42 23 15 360 251 240 220 234 237 248 278 283 265 247 236 230 230 226 228 224 216 214 216 220 216 208 208 211 210 209 212
192 178 174 174 151 125 106 111 126 106 123 108 63 41 5 326 266 261 251 246 249 255 268 280 284 276 258 251 250 246 239 226 215 221 218 220 218 212 212 215 217 220 221
198 180 178 156 151 146 148 134 132 112 84 100 82 28 13 18 7 263 253 247 261 266 268 270 270 272 282 272 256 244 243 229 212 209 213 216 220 216 216 219 223 227 230
196 189 175 172 159 148 134 135 138 125 95 93 119 88 8 355 358 356 315 240 265 273 276 275 268 267 272 279 266 250 253 246 234 222 222 226 227 222 222 225 227 228 231
199 183 181 177 171 166 171 181 169 153 164 110 119 137 132 259 312 335 342 328 307 282 284 285 272 267 262 262 269 263 262 258 247 238 238 241 237 232 227 232 235 236 235
219 193 188 184 175 171 179 203 177 167 160 181 197 134 163 165 171 320 325 328 329 306 298 289 289 277 260 254 254 255 257 260 254 250 251 254 251 249 249 246 241 242 241
254 199 194 185 180 179 187 194 176 174 174 177 182 166 137 108 144 186 282 319 328 303 288 275 282 285 276 259 256 259 258 255 250 249 253 259 262 259 262 270 264 254 250
282 220 187 182 189 188 192 192 185 181 181 175 180 177 167 169 186 186 224 271 298 304 305 288 278 278 278 270 267 272 264 258 255 248 247 253 262 268 272 271 272 275 269
226 239 191 176 193 205 200 187 180 190 187 184 194 205 202 206 184 176 186 231 268 296 311 299 269 265 273 269 275 278 271 261 262 258 255 255 259 264 267 270 270 270 273
219 216 194 186 198 207 200 186 189 207 195 198 206 204 206 217 195 184 182 180 233 291 288 276 285 258 268 261 274 268 272 266 260 261 261 260 260 262 261 262 261 263 267
213 204 194 196 206 207 199 186 203 221 205 209 213 207 215 231 211 206 192 184 183 234 267 263 267 282 272 254 273 254 256 264 253 261 263 261 259 258 257 255 252 253 254
214 198 204 209 212 207 198 197 216 224 210 223 219 208 222 234 225 212 200 203 198 200 238 246 245 281 282 281 268 246 250 257 255 257 260 261 259 256 257 259 256 253 254
205 205 208 210 216 218 211 205 221 217 219 235 231 216 226 222 223 222 203 201 207 202 229 260 250 266 254 279 298 268 259 255 264 257 256 257 256 257 256 255 256 256 255
215 213 208 214 224 223 214 212 223 223 221 231 235 225 235 228 227 224 213 215 217 211 216 247 258 255 249 269 279 274 274 262 263 267 259 258 257 259 257 254 252 253 255
214 211 206 216 225 221 217 219 220 225 227 229 231 229 233 223 236 232 221 223 224 219 216 227 254 253 255 279 290 288 282 274 275 273 266 261 260 260 258 257 252 250 252
213 213 215 219 222 219 219 222 222 227 235 241 242 241 238 229 232 230 228 227 221 216 215 224 248 259 259 270 270 274 286 278 277 281 274 269 268 264 262 259 257 254 252
217 213 210 217 220 217 222 216 220 228 237 254 263 260 252 243 235 231 231 224 213 214 218 229 244 254 255 257 255 249 262 282 273 255 275 276 276 274 274 268 263 260 256
211 205 213 218 228 236 231 214 210 224 235 244 259 271 272 259 250 240 235 224 210 214 220 226 241 247 252 247 248 249 253 271 276 244 245 275 265 270 271 268 266 261 257
204 206 215 221 237 250 238 224 213 209 228 242 249 261 272 275 267 263 253 240 236 233 221 220 235 243 245 237 231 246 243 246 253 259 223 266 265 266 270 266 263 258 257
202 211 219 223 236 253 241 228 212 218 236 249 249 245 249 264 265 250 260 262 259 254 240 233 239 247 249 238 223 231 238 249 260 253 216 254 268 269 277 270 262 256 253
211 216 223 221 230 250 240 226 210 223 243 257 258 247 242 251 259 237 240 261 272 274 257 238 237 248 254 246 219 206 219 236 261 258 216 240 266 275 276 272 264 256 257
222 226 236 231 232 244 242 231 212 221 245 260 264 259 246 248 255 236 231 242 260 271 277 275 258 260 258 251 223 217 220 232 253 257 225 220 254 267 277 271 273 271 266
Height
1545 1546 1546 1547 1547 1547 1548 1548 1548 1549 1549 1549 1549 1548 1548 1548 1547 1546 1546 1546 1546 1546 1546 1546 1546 1546 1546 1546 1546 1547 1547 1548 1548 1549 1549 1550 1551 1552 1553 1554 1556 1557 1558
1546 1546 1547 1547 1548 1548 1549 1549 1549 1549 1549 1549 1549 1549 1549 1549 1548 1548 1548 1547 1547 1546 1546 1546 1546 1546 1546 1546 1547 1547 1547 1547 1547 1548 1548 1549 1550 1551 1552 1553 1554 1555 1556
1546 1547 1548 1548 1549 1549 1549 1549 1549 1549 1550 1550 1550 1549 1549 1549 1549 1549 1548 1548 1547 1547 1547 1547 1547 1546 1547 1547 1547 1547 1547 1547 1547 1547 1547 1548 1549 1549 1550 1551 1552 1553 1554
1546 1547 1548 1548 1549 1549 1549 1550 1550 1550 1550 1550 1550 1550 1550 1550 1549 1549 1549 1548 1548 1548 1547 1547 1547 1547 1547 1547 1546 1546 1546 1546 1546 1546 1546 1547 1547 1548 1549 1550 1550 1551 1552
1547 1547 1548 1549 1549 1549 1550 1550 1550 1550 1550 1550 1550 1550 1550 1550 1549 1549 1549 1549 1548 1548 1547 1547 1547 1547 1546 1546 1546 1546 1546 1545 1545 1545 1545 1545 1546 1546 1547 1548 1548 1549 1550
1547 1548 1548 1549 1549 1549 1549 1549 1550 1550 1550 1550 1550 1550 1550 1549 1549 1549 1549 1548 1548 1548 1547 1547 1547 1546 1546 1546 1546 1545 1545 1545 1544 1544 1544 1543 1544 1544 1545 1545 1546 1547 1548
1547 1547 1548 1549 1549 1549 1549 1549 1549 1549 1549 1550 1550 1549 1549 1549 1549 1549 1549 1548 1548 1548 1547 1547 1546 1546 1546 1545 1545 1545 1544 1544 1543 1543 1542 1542 1542 1542 1543 1543 1544 1545 1545
1546 1547 1548 1548 1549 1549 1549 1549 1549 1549 1549 1549 1549 1549 1549 1550 1549 1549 1548 1548 1548 1547 1547 1546 1546 1545 1545 1544 1544 1544 1544 1543 1542 1542 1541 1541 1540 1540 1540 1541 1541 1542 1542
1545 1546 1547 1548 1548 1548 1548 1548 1549 1549 1549 1549 1549 1550 1549 1548 1548 1549 1548 1548 1547 1547 1546 1546 1545 1545 1544 1543 1543 1543 1543 1542 1542 1541 1540 1539 1539 1539 1539 1539 1539 1539 1539
1545 1545 1546 1547 1547 1547 1548 1548 1548 1548 1548 1548 1548 1549 1549 1548 1548 1548 1548 1547 1547 1546 1546 1545 1545 1544 1543 1543 1542 1542 1542 1541 1540 1540 1539 1538 1537 1537 1537 1537 1537 1537 1537
1543 1544 1545 1545 1546 1546 1546 1547 1547 1547 1547 1547 1548 1548 1548 1548 1548 1547 1547 1546 1546 1545 1545 1544 1544 1543 1542 1541 1541 1541 1540 1539 1539 1538 1537 1537 1536 1535 1535 1535 1534 1534 1534
1542 1543 1543 1544 1544 1545 1545 1546 1546 1546 1546 1546 1546 1547 1547 1547 1546 1546 1545 1545 1544 1544 1544 1543 1542 1542 1541 1540 1540 1539 1538 1538 1537 1536 1536 1535 1534 1533 1533 1532 1532 1532 1532
1541 1541 1542 1542 1543 1543 1544 1544 1545 1545 1545 1545 1545 1545 1545 1545 1545 1545 1544 1543 1543 1542 1542 1542 1541 1540 1539 1539 1538 1538 1537 1536 1535 1535 1534 1533 1532 1531 1531 1530 1530 1529 1529
1539 1540 1540 1541 1541 1542 1542 1543 1543 1543 1543 1544 1544 1544 1544 1544 1543 1543 1543 1542 1541 1540 1540 1540 1539 1539 1538 1537 1536 1536 1535 1534 1533 1533 1532 1531 1530 1529 1529 1528 1527 1527 1527
1538 1538 1539 1539 1540 1540 1541 1541 1541 1541 1542 1542 1542 1542 1542 1542 1541 1541 1541 1540 1540 1538 1538 1537 1537 1536 1536 1535 1534 1533 1533 1532 1531 1530 1529 1529 1528 1527 1526 1525 1525 1524 1524
1536 1536 1537 1537 1538 1538 1539 1539 1539 1539 1539 1540 1539 1539 1539 1539 1539 1539 1538 1538 1537 1537 1535 1535 1535 1534 1533 1533 1532 1531 1530 1530 1529 1528 1527 1526 1525 1524 1524 1523 1522 1522 1521
1534 1534 1535 1535 1536 1536 1537 1537 1537 1537 1537 1537 1537 1537 1537 1537 1537 1536 1536 1535 1535 1534 1533 1532 1532 1531 1531 1530 1529 1528 1528 1527 1526 1525 1524 1523 1523 1522 1521 1520 1519 1518 1518
1531 1531 1532 1533 1533 1534 1534 1535 1535 1535 1535 1534 1535 1534 1534 1534 1534 1533 1533 1532 1532 1531 1530 1529 1528 1528 1528 1527 1526 1525 1525 1524 1523 1522 1521 1520 1519 1518 1518 1517 1516 1515 1514
1528 1528 1529 1530 1530 1531 1532 1532 1532 1532 1532 1531 1531 1531 1531 1531 1530 1530 1530 1529 1528 1528 1527 1526 1525 1525 1524 1523 1522 1522 1521 1520 1519 1519 1518 1517 1516 1515 1514 1513 1512 1511 1510
1525 1525 1526 1527 1527 1528 1528 1528 1528 1528 1528 1528 1528 1528 1528 1527 1527 1526 1526 1525 1525 1524 1523 1522 1521 1521 1520 1519 1519 1518 1517 1516 1515 1515 1514 1513 1512 1511 1510 1509 1509 1508 1507
1521 1522 1523 1523 1524 1524 1525 1525 1525 1525 1525 1524 1524 1524 1524 1523 1523 1523 1522 1521 1521 1520 1519 1518 1517 1517 1516 1515 1514 1514 1513 1512 1511 1511 1510 1509 1508 1507 1506 1506 1505 1504 1503
1518 1519 1519 1520 1521 1521 1521 1521 1521 1521 1521 1520 1520 1520 1520 1519 1519 1519 1518 1517 1517 1516 1514 1514 1513 1513 1512 1511 1511 1510 1509 1508 1507 1507 1506 1505 1505 1503 1502 1502 1501 1500 1499
1515 1516 1516 1517 1517 1517 1517 1517 1517 1517 1517 1517 1517 1516 1516 1515 1515 1514 1513 1513 1512 1511 1511 1510 1509 1508 1508 1507 1507 1506 1505 1504 1503 1503 1502 1500 1500 1499 1498 1497 1496 1495 1494
1512 1512 1513 1513 1513 1514 1514 1514 1514 1513 1513 1513 1513 1512 1512 1511 1511 1510 1509 1509 1508 1507 1507 1506 1505 1504 1504 1503 1502 1502 1501 1500 1499 1499 1498 1496 1495 1494 1493 1492 1491 1491 1490
1509 1509 1510 1510 1510 1510 1510 1510 1510 1509 1509 1508 1508 1508 1508 1507 1506 1506 1505 1503 1503 1502 1502 1501 1500 1500 1499 1499 1498 1497 1496 1495 1494 1494 1494 1492 1491 1489 1488 1487 1487 1486 1485
1506 1506 1506 1507 1507 1506 1506 1506 1506 1505 1504 1504 1504 1504 1503 1503 1502 1501 1500 1499 1497 1497 1496 1495 1495 1494 1494 1494 1493 1493 1492 1491 1490 1489 1489 1488 1486 1485 1483 1482 1482 1481 1480